TimeCST,TemperatureF,Dew PointF,Humidity,Sea Level PressureIn,VisibilityMPH,Wind Direction,Wind SpeedMPH,Gust SpeedMPH,PrecipitationIn,Events,Conditions,WindDirDegrees,DateUTC
12:54 AM,28.9,25.0,85,30.40,10.0,Calm,Calm,-,N/A,,Clear,0,2012-11-16 06:54:00
1:54 AM,30.0,25.0,82,30.40,10.0,Calm,Calm,-,N/A,,Clear,0,2012-11-16 07:54:00
2:54 AM,28.0,25.0,88,30.42,8.0,Calm,Calm,-,N/A,,Clear,0,2012-11-16 08:54:00
3:54 AM,28.0,25.0,88,30.42,6.0,Calm,Calm,-,N/A,,Clear,0,2012-11-16 09:54:00
4:54 AM,28.0,25.0,88,30.43,6.0,Calm,Calm,-,N/A,,Clear,0,2012-11-16 10:54:00
5:54 AM,27.0,23.0,85,30.44,6.0,Calm,Calm,-,N/A,,Clear,0,2012-11-16 11:54:00
6:54 AM,26.1,23.0,88,30.46,6.0,Calm,Calm,-,N/A,,Clear,0,2012-11-16 12:54:00
7:54 AM,30.0,27.0,88,30.48,6.0,Calm,Calm,-,N/A,,Clear,0,2012-11-16 13:54:00
8:54 AM,37.0,30.0,76,30.49,6.0,Calm,Calm,-,N/A,,Haze,0,2012-11-16 14:54:00
9:54 AM,42.1,32.0,67,30.50,8.0,East,6.9,-,N/A,,Clear,100,2012-11-16 15:54:00
10:54 AM,46.0,33.1,61,30.50,10.0,Calm,Calm,-,N/A,,Clear,0,2012-11-16 16:54:00
11:54 AM,48.9,33.1,54,30.48,10.0,SE,3.5,-,N/A,,Clear,140,2012-11-16 17:54:00
12:54 PM,51.1,34.0,52,30.48,10.0,SW,3.5,-,N/A,,Clear,230,2012-11-16 18:54:00
1:54 PM,54.0,34.0,47,30.48,10.0,NNW,4.6,-,N/A,,Clear,330,2012-11-16 19:54:00
2:54 PM,53.1,34.0,48,30.47,10.0,Calm,Calm,-,N/A,,Clear,0,2012-11-16 20:54:00
3:54 PM,52.0,34.0,50,30.48,10.0,Calm,Calm,-,N/A,,Clear,0,2012-11-16 21:54:00
4:54 PM,46.0,34.0,63,30.48,10.0,Calm,Calm,-,N/A,,Partly Cloudy,0,2012-11-16 22:54:00
5:54 PM,39.9,33.1,77,30.49,10.0,Calm,Calm,-,N/A,,Clear,0,2012-11-16 23:54:00
6:54 PM,37.9,32.0,79,30.49,8.0,Calm,Calm,-,N/A,,Clear,0,2012-11-17 00:54:00
7:54 PM,39.9,33.1,77,30.48,9.0,East,8.1,-,N/A,,Clear,100,2012-11-17 01:54:00
8:54 PM,39.9,37.0,89,30.48,6.0,ESE,10.4,-,N/A,,Clear,120,2012-11-17 02:54:00
9:54 PM,37.9,37.0,97,30.48,4.0,SE,6.9,-,N/A,,Clear,130,2012-11-17 03:54:00
10:54 PM,36.0,35.1,97,30.49,4.0,Calm,Calm,-,N/A,,Clear,0,2012-11-17 04:54:00
11:54 PM,34.0,33.1,96,30.50,4.0,SE,4.6,-,N/A,,Clear,140,2012-11-17 05:54:00